User: anonymous   Login
Location: Unspecified
(0.0000°N, 0.0000°E)
Time: 06:49:32
(UTC+00:00)
Language:

ONEWEB-0365 - Orbit

View from above orbital plane
View from above orbital plane
View from above satellite
View from above satellite

Ground track
Ground track

The orbit is defined by the following mean orbital elements,

1 49291U          26145.36585551 +.00000000 +00000-0 -31519-4 0 00008
2 49291  87.9160 309.5145 0001718  92.6399 267.4930 13.19726532    00
Epoch (UTC): 25 May 2026 08:46:49
Eccentricity: 0.0001718
inclination: 87.9160°
perigee height: 1184 km
apogee height: 1187 km
right ascension of ascending node: 309.5145°
argument of perigee: 92.6399°
revolutions per day: 13.19726532
mean anomaly at epoch: 267.4930°

The dashed part of the orbit path shows where the satellite is in the earth's shadow,  

DLR